Meteo Giornale » Osservazioni meteo Ungheria » Szolnok
ore: 21:15 - Osservazioni Meteo Szolnok
Lat. 47° 7' N Lon. 20° 14' E Alt. 89 metri s.l.m.
23 °C
Sereno
Temp. 24 Ore
18 °C
29 °C
Nord
5.5 Km/h
Dew point 9 °C
Umidità 40 %
Visibilità 10 Km
Il sole sorge alle ore 05:58
Il sole tramonta alle ore 19:19
| Data e Ora | Cielo e Fenomeni | T °C | DP °C | Um. % | Pres. hPa | Vis. km | Vento km/h | |
|---|---|---|---|---|---|---|---|---|
| Oggi h: 21:15 | Sereno | 23 | 9 | 40 | 1019 | 10 | N 5.5 | |
| Oggi h: 20:45 | Sereno | 23 | 9 | 40 | 1019 | 10 | N 5.5 | |
| Oggi h: 20:15 | Sereno | 24 | 9 | 38 | 1018 | 10 | N 5.5 | |
| Oggi h: 19:45 | Sereno | 24 | 9 | 38 | 1018 | 10 | O/NO 7.4 | |
| Oggi h: 19:15 | Sereno | 26 | 9 | 34 | 1018 | 10 | NO 14.8 | |
| Oggi h: 18:45 | Sereno | 27 | 9 | 32 | 1018 | 10 | O/NO 14.8 | |
| Oggi h: 18:15 | Sereno | 27 | 9 | 32 | 1018 | 10 | O/NO 18.5 | |
| Oggi h: 17:45 | Sereno | 28 | 9 | 30 | 1018 | 10 | O/NO 18.5 | |
| Oggi h: 17:15 | Sereno | 28 | 8 | 28 | 1017 | 10 | O/NO 20.3 | |
| Oggi h: 16:45 | Sereno | 29 | 8 | 26 | 1017 | 10 | O/NO 20.3 | |
| Oggi h: 16:15 | Sereno | 29 | 8 | 26 | 1017 | 10 | O/NO 20.3 | |
| Oggi h: 15:45 | Sereno | 29 | 7 | 25 | 1018 | 10 | NO 16.7 | |
| Oggi h: 15:15 | Sereno | 29 | 9 | 28 | 1018 | 10 | O/NO 20.3 | |
| Oggi h: 14:45 | Sereno | 29 | 8 | 26 | 1018 | 10 | O 16.7 | |
| Oggi h: 14:15 | Sereno | 29 | 9 | 28 | 1018 | 10 | O/NO 18.5 | |
| Oggi h: 13:45 | Sereno | 29 | 7 | 25 | 1018 | 10 | O/NO 14.8 | |
| Oggi h: 13:15 | Sereno | 29 | 9 | 28 | 1018 | 10 | O 18.5 | |
| Oggi h: 12:45 | Sereno | 29 | 10 | 30 | 1018 | 10 | NO 20.3 | |
| Oggi h: 12:15 | Sereno | 28 | 10 | 32 | 1018 | 10 | NO 22.2 | |
| Oggi h: 11:45 | Sereno | 28 | 11 | 34 | 1018 | 10 | NO 24 | |
| Oggi h: 11:15 | Sereno | 28 | 12 | 37 | 1018 | 10 | NO 20.3 | |
| Oggi h: 10:45 | Sereno | 27 | 11 | 36 | 1018 | 10 | NO 24 | |
| Oggi h: 10:15 | Sereno | 26 | 13 | 44 | 1018 | 10 | O/NO 22.2 | |
| Oggi h: 09:45 | Sereno | 26 | 13 | 44 | 1018 | 10 | O/NO 20.3 | |
| Oggi h: 09:15 | Sereno | 24 | 14 | 53 | 1018 | 10 | NO 20.3 | |
| Oggi h: 08:45 | Sereno | 23 | 15 | 60 | 1017 | 10 | O/NO 18.5 | |
| Oggi h: 08:15 | Sereno | 22 | 15 | 64 | 1017 | 10 | O/NO 14.8 | |
| Oggi h: 07:15 | Sereno | 21 | 15 | 68 | 1017 | 10 | O/NO 14.8 | |
| Oggi h: 06:45 | Sereno | 20 | 15 | 72 | 1016 | 10 | O/NO 11.1 | |
| Oggi h: 06:15 | Sereno | 19 | 16 | 82 | 1016 | 10 | O/NO 9.3 | |
| Oggi h: 05:45 | Sereno | 19 | 16 | 82 | 1016 | 10 | O/NO 13 | |
| Oggi h: 05:15 | Sereno | 18 | 17 | 93 | 1016 | 10 | O/SO 7.4 | |
| Oggi h: 04:45 | Sereno | 18 | 17 | 93 | 1016 | 10 | N 3.7 | |
| Oggi h: 04:15 | Sereno | 18 | 17 | 93 | 1016 | 10 | O/SO 7.4 | |
| Oggi h: 03:45 | Sereno | 18 | 17 | 93 | 1016 | 10 | N 3.7 | |
| Oggi h: 03:15 | Pioggia | 19 | 17 | 88 | 1016 | 10 | N 3.7 | |
| Oggi h: 02:45 | Temporale | 20 | 15 | 72 | 1017 | 10 | S 11.1 | |
| Oggi h: 02:15 | Temporale | 25 | 10 | 38 | 1015 | 10 | O/NO 33.3 | |
| Oggi h: 01:45 | Nuvoloso | 26 | 13 | 44 | 1012 | 10 | N/NO 29.6 | |
| Oggi h: 01:15 | Sereno | 24 | 13 | 50 | 1013 | 10 | NO 14.8 | |
| Oggi h: 00:45 | Sereno | 24 | 13 | 50 | 1013 | 10 | NO 13 | |
| Oggi h: 00:15 | Sereno | 24 | 13 | 50 | 1013 | 10 | NO 11.1 | |
| Ieri h: 23:45 | Sereno | 25 | 13 | 47 | 1013 | 10 | NO 11.1 | |
| Ieri h: 23:15 | Sereno | 25 | 13 | 47 | 1013 | 10 | NO 7.4 | |
| Ieri h: 22:45 | Sereno | 26 | 12 | 41 | 1013 | 10 | N/NO 9.3 | |



